Charleston, SC

3:36 PM EST on December 04, 2016 (GMT -0500)
Charleston Executive

Weather History for KJZI - August, 2014

Change the Weather History Date:

Thursday, August 14, 2014

  Actual Average (KCHS) Record (KCHS)
Temperature  
Mean Temperature 78 °F 81 °F  
Max Temperature 84 °F 90 °F 102 °F (1995)
Min Temperature 73 °F 73 °F 61 °F (1979)
Degree Days  
Heating Degree Days 0 0  
Month to date heating degree days 0  
Since 1 June heating degree days 1  
Since 1 July heating degree days 0  
Cooling Degree Days 14 16  
Month to date cooling degree days 233  
Year to date cooling degree days 1545  
Since 1 June cooling degree days 1183  
Growing Degree Days 28 (Base 50)    
Moisture  
Dew Point 70 °F    
Average Humidity 74    
Maximum Humidity 100    
Minimum Humidity 58    
Precipitation  
Precipitation 0.00 in 0.22 in 3.82 in (1986)
Month to date precipitation 3.03  
Year to date precipitation 31.52  
Sea Level Pressure  
Sea Level Pressure 29.98 in    
Wind  
Wind Speed 3 mph (NE)    
Max Wind Speed 12 mph    
Max Gust Speed 20 mph    
Visibility 10 miles    
Events      
T = Trace of Precipitation, MM = Missing Value Source: NWS Daily Summary

Daily Weather History Graph

Daily Weather History Graph

Search for Another Location

Airport or City:

Trip Planner

Search our weather history database for the weather conditions in past years. The results will help you decide how hot, cold, wet, or windy it might be!

Date:

Astronomy

Aug. 14, 2014 Rise Set
Actual Time 6:42 AM EDT 8:05 PM EDT
Civil Twilight 6:16 AM EDT 8:31 PM EDT
Nautical Twilight 5:45 AM EDT 9:03 PM EDT
Astronomical Twilight 5:13 AM EDT 9:35 PM EDT
Moon 10:47 PM EDT (8/14) 11:00 AM EDT (8/14)
Length of Visible Light 14h 15m
Length of Day
13h 23m
Waning Gibbous, 79% of the Moon is Illuminated
Aug 14
Waning Gibbous
Aug 17
Last Quarter
Aug 25
New
Sep 2
First Quarter
Sep 8
Full

Hourly Weather History & Observations

Time (EDT) Temp. Heat Index Dew Point Humidity Pressure Visibility Wind Dir Wind Speed Gust Speed Precip Events Conditions
12:35 AM 80.6 °F 88.1 °F 78.8 °F 94% 29.94 in 10.0 mi Calm Calm - 0.00 in   Clear
12:55 AM 80.6 °F 87.1 °F 77.0 °F 89% 29.94 in 10.0 mi Calm Calm - 0.00 in   Clear
1:15 AM 78.8 °F - 77.0 °F 94% 29.95 in 10.0 mi Calm Calm - 0.00 in   Clear
1:35 AM 78.8 °F - 78.8 °F 100% 29.95 in 10.0 mi Calm Calm - 0.00 in   Partly Cloudy
1:55 AM 78.8 °F - 78.8 °F 100% 29.95 in 10.0 mi Calm Calm - 0.00 in   Mostly Cloudy
2:15 AM 78.8 °F - 78.8 °F 100% 29.95 in 9.0 mi Calm Calm - 0.00 in   Overcast
2:35 AM 78.8 °F - 77.0 °F 94% 29.94 in 10.0 mi North 4.6 mph - 0.00 in   Mostly Cloudy
2:55 AM 78.8 °F - 75.2 °F 89% 29.94 in 10.0 mi North 6.9 mph - 0.00 in   Scattered Clouds
3:15 AM 78.8 °F - 73.4 °F 83% 29.95 in 10.0 mi Calm Calm - 0.00 in   Partly Cloudy
3:35 AM 77.0 °F - 71.6 °F 83% 29.95 in 10.0 mi Calm Calm - 0.00 in   Clear
3:55 AM 77.0 °F - 69.8 °F 78% 29.95 in 10.0 mi NNE 8.1 mph - 0.00 in   Partly Cloudy
4:15 AM 77.0 °F - 69.8 °F 78% 29.95 in 10.0 mi NNE 5.8 mph - 0.00 in   Mostly Cloudy
4:35 AM 77.0 °F - 68.0 °F 74% 29.95 in 10.0 mi NNE 8.1 mph - 0.00 in   Mostly Cloudy
4:55 AM 75.2 °F - 68.0 °F 78% 29.95 in 10.0 mi NNE 3.5 mph - 0.00 in   Mostly Cloudy
5:15 AM 75.2 °F - 66.2 °F 73% 29.95 in 10.0 mi NNE 3.5 mph - 0.00 in   Mostly Cloudy
5:35 AM 75.2 °F - 66.2 °F 73% 29.95 in 10.0 mi Calm Calm - 0.00 in   Partly Cloudy
5:55 AM 75.2 °F - 66.2 °F 73% 29.96 in 10.0 mi Calm Calm - 0.00 in   Clear
6:35 AM 75.2 °F - 66.2 °F 73% 29.96 in 10.0 mi Calm Calm - 0.00 in   Partly Cloudy
6:55 AM 73.4 °F - 66.2 °F 78% 29.96 in 10.0 mi Calm Calm - 0.00 in   Clear
7:15 AM 73.4 °F - 66.2 °F 78% 29.97 in 10.0 mi Calm Calm - 0.00 in   Clear
7:35 AM 73.4 °F - 68.0 °F 83% 29.98 in 10.0 mi Calm Calm - 0.00 in   Clear
7:55 AM 73.4 °F - 68.0 °F 83% 29.98 in 10.0 mi Calm Calm - 0.00 in   Clear
8:15 AM 75.2 °F - 68.0 °F 78% 29.99 in 10.0 mi Calm Calm - 0.00 in   Clear
8:35 AM 75.2 °F - 66.2 °F 73% 30.00 in 10.0 mi North 6.9 mph - 0.00 in   Clear
8:55 AM 75.2 °F - 66.2 °F 73% 30.00 in 10.0 mi NNE 8.1 mph - 0.00 in   Clear
9:15 AM 78.8 °F - 66.2 °F 65% 30.00 in 10.0 mi NNE 9.2 mph - 0.00 in   Clear
9:35 AM 78.8 °F - 66.2 °F 65% 30.02 in 10.0 mi NNE 6.9 mph - 0.00 in   Clear
10:15 AM 80.6 °F 82.7 °F 66.2 °F 61% 30.02 in 10.0 mi NNE 9.2 mph - 0.00 in   Clear
10:35 AM 80.6 °F 82.7 °F 66.2 °F 61% 30.02 in 10.0 mi NE 9.2 mph - 0.00 in   Clear
10:55 AM 80.6 °F 83.2 °F 68.0 °F 65% 30.03 in 10.0 mi NE 10.4 mph - 0.00 in   Clear
11:35 AM 82.4 °F 85.4 °F 68.0 °F 62% 30.04 in 10.0 mi ENE 10.4 mph - 0.00 in   Clear
11:55 AM 82.4 °F 86.3 °F 69.8 °F 66% 30.04 in 10.0 mi NE 9.2 mph - 0.00 in   Partly Cloudy
12:15 PM 82.4 °F 86.3 °F 69.8 °F 66% 30.04 in 10.0 mi ENE 8.1 mph - 0.00 in   Partly Cloudy
12:35 PM 82.4 °F 86.3 °F 69.8 °F 66% 30.03 in 10.0 mi NE 8.1 mph - 0.00 in   Clear
12:55 PM 82.4 °F 86.3 °F 69.8 °F 66% 30.03 in 10.0 mi NE 10.4 mph - 0.00 in   Partly Cloudy
1:15 PM 84.2 °F 88.4 °F 69.8 °F 62% 30.03 in 10.0 mi NE 8.1 mph - 0.00 in   Partly Cloudy
1:35 PM 84.2 °F 88.4 °F 69.8 °F 62% 30.03 in 10.0 mi NE 9.2 mph 19.6 mph 0.00 in   Clear
1:55 PM 84.2 °F 88.4 °F 69.8 °F 62% 30.02 in 10.0 mi East 10.4 mph - 0.00 in   Clear
2:15 PM 84.2 °F 88.4 °F 69.8 °F 62% 30.01 in 10.0 mi East 11.5 mph - 0.00 in   Clear
2:35 PM 82.4 °F 86.3 °F 69.8 °F 66% 30.00 in 10.0 mi East 10.4 mph - 0.00 in   Clear
2:55 PM 84.2 °F 88.4 °F 69.8 °F 62% 30.00 in 10.0 mi East 10.4 mph - 0.00 in   Clear
3:15 PM 84.2 °F 88.4 °F 69.8 °F 62% 30.00 in 10.0 mi East 9.2 mph - 0.00 in   Clear
3:35 PM 84.2 °F 88.4 °F 69.8 °F 62% 29.99 in 10.0 mi East 6.9 mph - 0.00 in   Clear
3:55 PM 84.2 °F 88.4 °F 69.8 °F 62% 29.98 in 10.0 mi East 8.1 mph - 0.00 in   Clear
4:15 PM 84.2 °F 88.4 °F 69.8 °F 62% 29.97 in 10.0 mi East 6.9 mph - 0.00 in   Clear
4:35 PM 84.2 °F 88.4 °F 69.8 °F 62% 29.97 in 10.0 mi East 6.9 mph - 0.00 in   Clear
4:55 PM 84.2 °F 88.4 °F 69.8 °F 62% 29.97 in 10.0 mi ESE 9.2 mph - 0.00 in   Clear
5:35 PM 84.2 °F 88.4 °F 69.8 °F 62% 29.98 in 10.0 mi ESE 5.8 mph - 0.00 in   Clear
5:55 PM 84.2 °F 88.4 °F 69.8 °F 62% 29.97 in 10.0 mi Calm Calm - 0.00 in   Clear
6:15 PM 84.2 °F 87.3 °F 68.0 °F 58% 29.98 in 10.0 mi ESE 8.1 mph - 0.00 in   Clear
6:35 PM 82.4 °F 86.3 °F 69.8 °F 66% 29.97 in 10.0 mi ESE 5.8 mph - 0.00 in   Clear
6:55 PM 82.4 °F 86.3 °F 69.8 °F 66% 29.97 in 10.0 mi Calm Calm - 0.00 in   Clear
7:15 PM 82.4 °F 86.3 °F 69.8 °F 66% 29.96 in 10.0 mi Calm Calm - 0.00 in   Clear
7:35 PM 82.4 °F 86.3 °F 69.8 °F 66% 29.96 in 10.0 mi Calm Calm - 0.00 in   Clear
7:55 PM 80.6 °F 83.9 °F 69.8 °F 70% 29.97 in 10.0 mi Calm Calm - 0.00 in   Clear
8:15 PM 80.6 °F 83.9 °F 69.8 °F 70% 29.97 in 10.0 mi Calm Calm - 0.00 in   Clear
8:35 PM 78.8 °F - 69.8 °F 74% 29.98 in 10.0 mi Calm Calm - 0.00 in   Clear
8:55 PM 78.8 °F - 69.8 °F 74% 29.99 in 10.0 mi Calm Calm - 0.00 in   Clear
9:15 PM 78.8 °F - 71.6 °F 78% 29.99 in 10.0 mi Calm Calm - 0.00 in   Clear
9:35 PM 78.8 °F - 71.6 °F 78% 29.99 in 10.0 mi Calm Calm - 0.00 in   Clear
9:55 PM 75.2 °F - 71.6 °F 89% 30.00 in 10.0 mi Calm Calm - 0.00 in   Clear
10:15 PM 75.2 °F - 71.6 °F 89% 30.00 in 10.0 mi Calm Calm - 0.00 in   Clear
10:35 PM 75.2 °F - 71.6 °F 89% 30.00 in 10.0 mi Calm Calm - 0.00 in   Clear
10:55 PM 75.2 °F - 71.6 °F 89% 30.00 in 10.0 mi Calm Calm - 0.00 in   Clear
11:35 PM 73.4 °F - 71.6 °F 94% 30.01 in 10.0 mi Calm Calm - 0.00 in   Clear
11:55 PM 73.4 °F - 71.6 °F 94% 30.01 in 10.0 mi Calm Calm - 0.00 in   Clear